User: anonymous   Login
Location: Mactaquac Provincial Park
(45.9573°N, 66.8897°W)
Time: 06:35:35
(UTC-04:00)
Language:

Cosmos 1766 - Orbit

View from above orbital plane
View from above orbital plane
View from above satellite
View from above satellite

Ground track
Ground track

The orbit data is extracted from the following two-line orbital elements,

1 16881U 86055A   16041.45171807  .00002234  00000-0  13841-3 0  9994
2 16881  82.5060 145.4996 0016619   0.9583 359.1674 15.09181532607095
Epoch (UTC): 10 February 2016 10:50:28
Eccentricity: 0.0016619
inclination: 82.5060°
perigee height: 527 km
apogee height: 550 km
right ascension of ascending node: 145.4996°
argument of perigee: 0.9583°
revolutions per day: 15.09181532
mean anomaly at epoch: 359.1674°
orbit number at epoch: 60709

The dashed part of the orbit path shows where the satellite is in the earth's shadow,  

DLR